Kalispell, MT

1:39 PM MST on January 23, 2018 (GMT -0700)
Glacier Park International

Weather History for KGPI - April, 2013

Change the Weather History Date:

Tuesday, April 16, 2013

  Actual Average Record
Temperature  
Mean Temperature 33 °F 44 °F  
Max Temperature 41 °F 56 °F 82 °F (1984)
Min Temperature 24 °F 31 °F 19 °F (1999)
Degree Days  
Heating Degree Days 32 21  
Month to date heating degree days 395 367  
Since 1 July heating degree days 6575 7138  
Cooling Degree Days 0 0  
Month to date cooling degree days 0 0  
Year to date cooling degree days 0 0  
Moisture  
Dew Point 12 °F    
Average Humidity 45    
Maximum Humidity 63    
Minimum Humidity 27    
Precipitation  
Precipitation 0.00 in 0.04 in 0.68 in (1978)
Month to date precipitation 0.70 0.64  
Year to date precipitation 2.65 4.03  
Snow  
Snow 0.00 in - - ()
Month to date snowfall 0.3  
Year to date snowfall 8.6  
Since 1 July snowfall 17.4  
Snow Depth 0.00 in    
Sea Level Pressure  
Sea Level Pressure 30.31 in    
Wind  
Wind Speed 11 mph (NNE)    
Max Wind Speed 20 mph    
Max Gust Speed 28 mph    
Visibility 10 miles    
Events      
T = Trace of Precipitation, MM = Missing Value Source: NWS Daily Summary

Daily Weather History Graph

Daily Weather History Graph

Search for Another Location

Airport or City:

Trip Planner

Search our weather history database for the weather conditions in past years. The results will help you decide how hot, cold, wet, or windy it might be!

Date:

Astronomy

Apr. 16, 2013 Rise Set
Actual Time 6:44 AM MDT 8:29 PM MDT
Civil Twilight 6:11 AM MDT 9:02 PM MDT
Nautical Twilight 5:31 AM MDT 9:43 PM MDT
Astronomical Twilight 4:46 AM MDT 10:28 PM MDT
Moon 10:54 AM MDT (4/16) 1:42 AM MDT (4/16)
Length of Visible Light 14h 51m
Length of Day
13h 45m
Waxing Crescent, 34% of the Moon is Illuminated
Apr 16
Waxing Crescent
Apr 18
First Quarter
Apr 25
Full
May 2
Last Quarter
May 9
New

Hourly Weather History & Observations

Time (MDT) Temp. Windchill Dew Point Humidity Pressure Visibility Wind Dir Wind Speed Gust Speed Precip Events Conditions
12:55 AM 28.9 °F 18.6 °F 10.9 °F 47% 30.23 in 10.0 mi North 12.7 mph - N/A   Mostly Cloudy
1:55 AM 28.9 °F 19.2 °F 10.9 °F 47% 30.23 in 10.0 mi NNE 11.5 mph - N/A   Overcast
2:55 AM 28.0 °F 16.5 °F 12.9 °F 53% 30.22 in 10.0 mi NNE 15.0 mph - N/A   Overcast
3:55 AM 27.0 °F 17.3 °F 14.0 °F 58% 30.23 in 10.0 mi North 10.4 mph - N/A   Clear
4:55 AM 27.0 °F 18.7 °F 14.0 °F 58% 30.25 in 10.0 mi North 8.1 mph - N/A   Clear
5:55 AM 26.6 °F 18.2 °F 15.8 °F 64% 30.19 in 10.0 mi North 8.1 mph - N/A   Partly Cloudy
6:55 AM 28.0 °F 18.6 °F 16.0 °F 61% 30.29 in 10.0 mi North 10.4 mph - N/A   Overcast
7:55 AM 30.0 °F 23.2 °F 16.0 °F 56% 30.30 in 10.0 mi North 6.9 mph - N/A   Overcast
8:55 AM 32.0 °F 23.0 °F 12.9 °F 45% 30.31 in 10.0 mi NNE 11.5 mph - N/A   Overcast
9:55 AM 34.0 °F 25.0 °F 14.0 °F 44% 30.31 in 10.0 mi NNE 12.7 mph 21.9 mph N/A   Overcast
10:55 AM 36.0 °F 26.7 °F 14.0 °F 41% 30.31 in 10.0 mi NNE 15.0 mph 21.9 mph N/A   Mostly Cloudy
11:55 AM 37.9 °F 30.9 °F 14.0 °F 38% 30.30 in 10.0 mi NNE 10.4 mph 18.4 mph N/A   Mostly Cloudy
12:55 PM 37.0 °F 30.4 °F 15.1 °F 41% 30.31 in 10.0 mi NE 9.2 mph 23.0 mph N/A   Partly Cloudy
1:55 PM 39.0 °F 29.6 °F 12.0 °F 33% 30.30 in 10.0 mi NE 18.4 mph 23.0 mph N/A   Overcast
2:55 PM 39.9 °F 33.4 °F 10.0 °F 29% 30.31 in 10.0 mi NE 10.4 mph - N/A   Mostly Cloudy
3:55 PM 41.0 °F 33.5 °F 10.0 °F 28% 30.31 in 10.0 mi NNE 13.8 mph 21.9 mph N/A   Scattered Clouds
4:55 PM 39.9 °F 34.5 °F 9.0 °F 28% 30.32 in 10.0 mi NE 8.1 mph - N/A   Partly Cloudy
5:55 PM 37.9 °F 28.9 °F 8.1 °F 29% 30.34 in 10.0 mi North 16.1 mph - N/A   Clear
6:55 PM 37.0 °F 27.4 °F 8.1 °F 30% 30.36 in 10.0 mi NNE 17.3 mph - N/A   Scattered Clouds
7:55 PM 35.1 °F 25.5 °F 8.1 °F 33% 30.38 in 10.0 mi NNE 15.0 mph - N/A   Mostly Cloudy
8:55 PM 30.9 °F 22.2 °F 9.0 °F 40% 30.40 in 10.0 mi NNE 10.4 mph - N/A   Scattered Clouds
9:55 PM 30.0 °F 21.7 °F 8.1 °F 40% 30.42 in 10.0 mi NNE 9.2 mph - N/A   Overcast
10:55 PM 28.0 °F 19.3 °F 9.0 °F 45% 30.43 in 10.0 mi NE 9.2 mph - N/A   Partly Cloudy
11:55 PM 26.1 °F 18.4 °F 10.9 °F 53% 30.42 in 10.0 mi North 6.9 mph - N/A   Clear